Location: *
(51.4660°N, 0.3360°W)
Time: 05:05:42
(UTC+00:00)

Meteor 1-24 Rocket - Pass Details

Date: 19 September 2019
Orbit: 791 x 926 km, 81.2° (Epoch: 23 October)

Event Time Altitude Azimuth Distance (km) Brightness Sun altitude
Rises 19:18:30 0° 351° (N) 3,440 7.3 -11.7°
Reaches altitude 10° 19:21:06 10° 360° (N) 2,521 6.4 -12.1°
Maximum altitude 19:26:25 38° 67° (ENE) 1,341 4.4 -12.9°
Enters shadow 19:30:22 17° 126° (SE) 2,096 5.2 -13.5°
